WI1SKY Weather Reports


Display with metric or nautical units.
time (UTC)temp
F
wind
direction
speed
MPH
gust
MPH
rain 1hr
in
rain 24hr
in
rain mn
in
humidity
%
barometer
mb
20200704115617 67 112 0.0 0.0 0.00 0.00 0.00 82 1019.1
20200704114612 67 112 0.0 0.0 0.00 0.00 0.00 82 1019.1
20200704113609 67 157 0.0 0.0 0.00 0.00 0.00 82 1019.1
20200704112608 67 135 0.0 0.0 0.00 0.00 0.00 82 1019.1
20200704111607 67 157 0.0 0.0 0.00 0.00 0.00 82 1019.4
20200704110606 67 202 0.0 0.0 0.00 0.00 0.00 81 1019.4
20200704102918 67 180 0.0 0.0 0.00 0.00 0.00 81 1019.4
20200704101917 67 180 0.0 0.0 0.00 0.00 0.00 81 1019.4
20200704100916 67 67 0.0 0.0 0.00 0.00 0.00 81 1019.0
20200704095915 67 67 0.0 0.0 0.00 0.00 0.00 81 1019.1
20200704094914 67 67 0.0 0.0 0.00 0.00 0.00 80 1019.0
20200704093913 67 67 0.0 0.0 0.00 0.00 0.00 80 1019.1
20200704092912 67 90 0.0 0.0 0.00 0.00 0.00 80 1019.1
20200704091911 67 90 0.0 0.0 0.00 0.00 0.00 80 1019.2
20200704090910 67 90 0.0 0.0 0.00 0.00 0.00 80 1018.9
20200704085909 67 112 0.0 0.0 0.00 0.00 0.00 80 1019.3
20200704084908 67 112 0.0 0.0 0.00 0.00 0.00 80 1019.4
20200704080714 68 112 0.0 0.0 0.00 0.00 0.00 79 1019.8
20200704075712 68 112 0.0 0.0 0.00 0.00 0.00 79 1019.5
20200704074711 68 112 0.0 0.0 0.00 0.00 0.00 79 1019.5
20200704073710 68 112 0.0 0.0 0.00 0.00 0.00 79 1019.5
20200704072710 68 67 0.0 0.0 0.00 0.00 0.00 79 1019.5
20200704071708 68 67 0.0 0.0 0.00 0.00 0.00 79 1019.5
20200704070707 68 67 0.0 0.0 0.00 0.00 0.00 79 1019.1
20200704065706 69 45 0.0 0.0 0.00 0.00 0.00 78 1019.1
20200704064705 69 0 0.0 0.0 0.00 0.00 0.00 77 1019.1
20200704063704 69 0 0.0 0.0 0.00 0.00 0.00 77 1019.1
20200704062704 69 315 0.0 0.0 0.00 0.00 0.00 78 1018.8
20200704061702 70 202 0.0 0.0 0.00 0.00 0.00 78 1019.2
20200704060702 70 225 0.0 0.0 0.00 0.00 0.00 100 1018.9
20200704055701 69 135 0.0 0.0 0.00 0.00 0.00 100 1018.9
20200704054700 69 135 0.0 0.0 0.00 0.00 0.00 100 1018.6
20200704051840 70 112 0.0 0.0 0.00 0.00 0.00 76 1019.1
20200704050839 70 112 0.0 0.0 0.00 0.00 0.00 76 1019.1
20200704045838 71 112 0.0 0.0 0.00 0.00 0.00 76 1019.1
20200704044837 71 112 0.0 0.0 0.00 0.00 0.00 76 1019.1
20200704043836 71 112 0.0 0.0 0.00 0.00 0.00 76 1019.1
20200704042835 71 112 0.0 0.0 0.00 0.00 0.00 76 1019.0
20200704041834 71 112 0.0 0.0 0.00 0.00 0.00 100 1018.8
20200704040833 71 112 0.0 0.0 0.00 0.00 0.00 100 1019.1
20200704034218 72 157 0.0 0.0 0.00 0.00 0.00 74 1019.3
20200704033217 72 157 0.0 0.0 0.00 0.00 0.00 74 1019.3
20200704032216 72 157 0.0 0.0 0.00 0.00 0.00 74 1019.0
20200704031215 73 45 0.0 0.0 0.00 0.00 0.00 74 1019.3
20200704030214 73 45 0.0 0.0 0.00 0.00 0.00 73 1019.3
20200704025214 73 225 0.0 0.0 0.00 0.00 0.00 73 1019.4
20200704024212 74 202 0.0 0.0 0.00 0.00 0.00 73 1019.4
20200704023211 74 202 0.0 0.0 0.00 0.00 0.00 73 1019.3
20200704022210 74 202 0.0 0.0 0.00 0.00 0.00 72 1019.3
20200704021210 75 270 0.0 0.0 0.00 0.00 0.00 71 1018.9
20200704020209 75 22 0.0 0.0 0.00 0.00 0.00 71 1019.2
20200704015209 75 90 0.0 0.0 0.00 0.00 0.00 71 1018.5
20200704014207 75 90 0.0 0.0 0.00 0.00 0.00 71 1018.4
20200704013206 75 180 0.0 0.0 0.00 0.00 0.00 71 1018.8
20200704012206 75 180 0.0 0.0 0.00 0.00 0.00 70 1018.4
20200704011205 75 112 0.0 0.0 0.00 0.00 0.00 69 1018.4
20200704010204 75 112 0.0 0.0 0.00 0.00 0.00 68 1018.7
20200704005203 76 22 0.0 0.0 0.00 0.00 0.00 67 1018.7
20200704004202 76 22 0.0 0.0 0.00 0.00 0.00 67 1018.7
20200704003201 76 22 0.0 0.0 0.00 0.00 0.00 67 1018.7
20200704002200 76 22 0.0 0.0 0.00 0.00 0.00 67 1018.4
20200704001159 76 67 0.0 0.0 0.00 0.00 0.00 66 1018.4
20200704000158 77 67 0.0 0.0 0.00 0.00 0.00 65 1018.0
20200703235157 77 112 0.0 0.0 0.00 0.00 0.00 65 1018.0
20200703234156 78 0 0.0 0.0 0.00 0.00 0.00 64 1018.3
20200703233155 78 45 0.0 0.0 0.00 0.00 0.00 63 1018.3
20200703232154 78 45 0.0 0.0 0.00 0.00 0.00 63 1018.3
20200703231153 78 45 0.0 0.0 0.00 0.00 0.00 63 1018.3
20200703230153 78 45 0.0 0.0 0.00 0.00 0.00 63 1018.3
20200703225152 79 45 0.0 0.0 0.00 0.00 0.00 63 1018.3
20200703224151 78 0 0.0 0.0 0.00 0.00 0.00 63 1018.3
20200703223150 78 112 0.0 0.0 0.00 0.00 0.00 61 1018.3
20200703222149 78 22 0.0 0.0 0.00 0.00 0.00 61 1018.3
20200703221148 77 45 0.0 0.0 0.00 0.00 0.00 60 1018.3
20200703220147 78 45 0.0 0.0 0.00 0.00 0.00 61 1018.6
20200703215146 77 22 0.0 0.0 0.00 0.00 0.00 60 1018.6
20200703214145 78 67 0.0 0.0 0.00 0.00 0.00 58 1019.0
20200703213145 80 22 0.0 0.0 0.00 0.00 0.00 57 1019.4
20200703212144 81 45 0.0 0.0 0.00 0.00 0.00 58 1019.4
20200703211143 82 135 0.0 0.0 0.00 0.00 0.00 56 1018.8
20200703210142 84 112 0.0 0.0 0.00 0.00 0.00 52 1018.8
20200703205141 88 112 0.0 0.0 0.00 0.00 0.00 49 1018.9
20200703204140 91 90 0.0 0.0 0.00 0.00 0.00 48 1019.1
20200703203138 92 315 0.0 0.0 0.00 0.00 0.00 48 1018.8
20200703202138 92 0 0.0 0.0 0.00 0.00 0.00 49 1018.8
20200703201137 92 22 0.0 0.0 0.00 0.00 0.00 49 1018.8
20200703200135 92 45 0.0 0.0 0.00 0.00 0.00 48 1019.1
20200703195135 92 0 0.0 0.0 0.00 0.00 0.00 49 1019.1
20200703194133 92 0 0.0 0.0 0.00 0.00 0.00 49 1019.5
20200703193133 92 270 0.0 0.0 0.00 0.00 0.00 48 1019.5
20200703192132 91 0 0.0 0.0 0.00 0.00 0.00 49 1019.4
20200703191131 91 315 0.0 0.0 0.00 0.00 0.00 50 1019.5
20200703190130 91 337 0.0 0.0 0.00 0.00 0.00 49 1019.4
20200703185129 91 247 0.0 0.0 0.00 0.00 0.00 49 1019.8
20200703184128 91 45 0.0 0.0 0.00 0.00 0.00 49 1019.8
20200703183127 91 22 0.0 0.0 0.00 0.00 0.00 48 1019.8
20200703182126 91 67 0.0 0.0 0.00 0.00 0.00 49 1019.8
20200703181125 90 22 0.0 0.0 0.00 0.00 0.00 50 1019.8
20200703180124 90 0 0.0 0.0 0.00 0.00 0.00 51 1019.8
20200703175123 89 45 0.0 0.0 0.00 0.00 0.00 50 1019.8
20200703174122 89 22 0.0 0.0 0.00 0.00 0.00 51 1019.8
20200703173121 88 45 0.0 0.0 0.00 0.00 0.00 51 1019.8
20200703172120 88 67 0.0 0.0 0.00 0.00 0.00 51 1020.1
20200703171120 87 292 0.0 0.0 0.00 0.00 0.00 52 1020.1
20200703170118 87 0 0.0 0.0 0.00 0.00 0.00 54 1020.1
20200703165117 86 315 0.0 0.0 0.00 0.00 0.00 55 1020.0
20200703164118 85 112 0.0 0.0 0.00 0.00 0.00 56 1020.0
20200703163116 85 247 0.0 0.0 0.00 0.00 0.00 57 1020.4
20200703162115 84 0 0.0 0.0 0.00 0.00 0.00 58 1020.0
20200703161114 84 0 0.0 0.0 0.00 0.00 0.00 59 1020.0
20200703160113 83 0 0.0 0.0 0.00 0.00 0.00 59 1020.4
20200703155112 82 22 0.0 0.0 0.00 0.00 0.00 60 1020.0
20200703154111 82 0 0.0 0.0 0.00 0.00 0.00 62 1020.4
20200703153110 82 0 0.0 0.0 0.00 0.00 0.00 62 1020.4
20200703152109 81 337 0.0 0.0 0.00 0.00 0.00 63 1020.4
20200703151109 80 22 0.0 0.0 0.00 0.00 0.00 63 1020.4
20200703150108 81 22 0.0 0.0 0.00 0.00 0.00 62 1020.4
20200703145107 81 0 0.0 0.0 0.00 0.00 0.00 62 1020.4
20200703144106 80 292 0.0 0.0 0.00 0.00 0.00 64 1020.7
20200703143105 79 0 0.0 0.0 0.00 0.00 0.00 66 1020.7
20200703142104 78 0 0.0 0.0 0.00 0.00 0.00 66 1020.7
20200703141104 77 0 0.0 0.0 0.00 0.00 0.00 68 1020.7
20200703140103 74 0 0.0 0.0 0.00 0.00 0.00 72 1020.6
20200703135102 72 292 0.0 0.0 0.00 0.00 0.00 74 1020.6
20200703134101 71 337 0.0 0.0 0.00 0.00 0.00 75 1020.5
20200703133100 70 337 0.0 0.0 0.00 0.00 0.00 75 1020.5
20200703132058 69 0 0.0 0.0 0.00 0.00 0.00 75 1020.5
20200703131057 68 315 0.0 0.0 0.00 0.00 0.00 76 1020.5
20200703130057 68 315 0.0 0.0 0.00 0.00 0.00 76 1020.8
20200703125055 67 157 0.0 0.0 0.00 0.00 0.00 76 1020.8
20200703124055 67 157 0.0 0.0 0.00 0.00 0.00 76 1020.8
20200703123053 67 157 0.0 0.0 0.00 0.00 0.00 76 1020.5
20200703122052 67 90 0.0 0.0 0.00 0.00 0.00 76 1020.9
20200703121051 67 112 0.0 0.0 0.00 0.00 0.00 77 1020.5
20200703120050 66 90 0.0 0.0 0.00 0.00 0.00 77 1020.5